Camaguey Ignacio, Cuba

4:49 AM CDT on April 30, 2017 (GMT -0400)
Ignacio Agramonte International

Weather History for MUCM - May, 2014

Change the Weather History Date:

Sunday, May 11, 2014

  Actual Average Record
Temperature  
Mean Temperature 78 °F -  
Max Temperature 87 °F 85 °F 93 °F (2006)
Min Temperature 69 °F 70 °F 68 °F (2001)
Cooling Degree Days 13    
Growing Degree Days 28 (Base 50)    
Moisture  
Dew Point 63 °F    
Average Humidity 63    
Maximum Humidity 88    
Minimum Humidity 31    
Precipitation  
Precipitation 0.16 in - - ()
Sea Level Pressure  
Sea Level Pressure 30.04 in    
Wind  
Wind Speed 10 mph ()    
Max Wind Speed 21 mph    
Max Gust Speed -    
Visibility 5.8 miles    
Events      
Averages and records for this station are not official NWS values.
T = Trace of Precipitation, MM = Missing Value Source: Averaged Metar Reports

Daily Weather History Graph

Daily Weather History Graph

Search for Another Location

Airport or City:

Trip Planner

Search our weather history database for the weather conditions in past years. The results will help you decide how hot, cold, wet, or windy it might be!

Date:

Astronomy

May. 11, 2014 Rise Set
Actual Time 6:34 AM CDT 7:40 PM CDT
Civil Twilight 6:11 AM CDT 8:04 PM CDT
Nautical Twilight 5:43 AM CDT 8:32 PM CDT
Astronomical Twilight 5:14 AM CDT 9:01 PM CDT
Moon 4:56 PM CDT (5/11) 4:13 AM CDT (5/11)
Length of Visible Light 13h 53m
Length of Day
13h 06m
Waxing Gibbous, 89% of the Moon is Illuminated
May 11
Waxing Gibbous
May 14
Full
May 21
Last Quarter
May 28
New
Jun 5
First Quarter

Hourly Weather History & Observations

Time (CDT) Temp. Heat Index Dew Point Humidity Pressure Visibility Wind Dir Wind Speed Gust Speed Precip Events Conditions
12:51 AM 71.6 °F - 68.0 °F 88% 30.06 in 5.6 mi East 9.2 mph - N/A   Partly Cloudy
1:50 AM 71.6 °F - 66.2 °F 83% 30.04 in 5.6 mi East 9.2 mph - N/A   Partly Cloudy
2:00 AM 72 °F - 67 °F 79% 30.06 in 6 mi East 4.6 mph - -   Scattered Clouds
2:50 AM 71.6 °F - 66.2 °F 83% 30.04 in 5.6 mi East 9.2 mph - N/A   Partly Cloudy
3:51 AM 69.8 °F - 66.2 °F 88% 30.04 in 5.6 mi East 6.9 mph - N/A   Partly Cloudy
4:50 AM 69.8 °F - 66.2 °F 88% 30.04 in 5.6 mi East 6.9 mph - N/A   Unknown
5:00 AM 71 °F - 67 °F 82% 30.05 in 6 mi East 6.7 mph - -   Clear
5:51 AM 71.6 °F - 66.2 °F 83% 30.04 in 5.6 mi East 9.2 mph - N/A   Partly Cloudy
6:50 AM 69.8 °F - 66.2 °F 88% 30.06 in 5.6 mi ENE 6.9 mph - N/A   Partly Cloudy
7:50 AM 73.4 °F - 66.2 °F 78% 30.09 in 5.6 mi ENE 8.1 mph - N/A   Partly Cloudy
8:00 AM 73 °F - 66 °F 73% 30.09 in 6 mi ENE 4.6 mph - -   Scattered Clouds
8:52 AM 78.8 °F - 64.4 °F 61% 30.09 in - East 13.8 mph - N/A   Clear
9:51 AM 80.6 °F 82.3 °F 64.4 °F 58% 30.09 in 6.2 mi East 15.0 mph - N/A   Scattered Clouds
10:51 AM 84.2 °F 84.4 °F 60.8 °F 45% 30.09 in 6.2 mi East 17.3 mph - N/A   Partly Cloudy
11:00 AM 84 °F - 60 °F 34% 30.09 in 6 mi East 17.9 mph - -   Scattered Clouds
11:51 AM 84.2 °F 84.4 °F 60.8 °F 45% 30.06 in 6.2 mi ENE 17.3 mph - N/A   Partly Cloudy
12:53 PM 86.0 °F 86.6 °F 62.6 °F 45% 30.04 in 6.2 mi ENE 18.4 mph - N/A   Scattered Clouds
1:50 PM 86.0 °F 86.1 °F 60.8 °F 43% 30.04 in 6.2 mi East 19.6 mph - N/A   Partly Cloudy
2:00 PM 87 °F - 61 °F 31% 30.05 in 6 mi East 9.2 mph - -   Scattered Clouds
2:51 PM 86.0 °F 85.4 °F 59.0 °F 40% 30.01 in 5.6 mi East 16.1 mph - N/A   Partly Cloudy
3:50 PM 86.0 °F 84.9 °F 57.2 °F 37% 30.01 in 5.6 mi East 16.1 mph - N/A   Partly Cloudy
4:51 PM 86.0 °F 85.4 °F 59.0 °F 40% 29.98 in 6.2 mi ENE 20.7 mph - N/A   Partly Cloudy
5:00 PM 85 °F - 59 °F 31% 29.99 in 6 mi ENE 20.1 mph - -   Scattered Clouds
5:50 PM 82.4 °F 82.9 °F 60.8 °F 48% 29.98 in 6.2 mi ENE 20.7 mph - N/A   Partly Cloudy
6:50 PM 80.6 °F 82.3 °F 64.4 °F 58% 30.01 in 5.6 mi ENE 20.7 mph - N/A   Scattered Clouds
7:50 PM 77.0 °F - 62.6 °F 61% 30.01 in 5.6 mi ENE 15.0 mph - N/A   Partly Cloudy
8:00 PM 78 °F - 62 °F 48% 30.02 in 6 mi ENE 8.1 mph - -   Scattered Clouds
8:50 PM 75.2 °F - 62.6 °F 65% 30.04 in 5.6 mi ENE 12.7 mph - N/A   Partly Cloudy
9:50 PM 73.4 °F - 64.4 °F 73% 30.04 in 5.6 mi ENE 8.1 mph - N/A   Partly Cloudy
10:50 PM 71.6 °F - 64.4 °F 78% 30.04 in 5.6 mi ENE 8.1 mph - N/A   Partly Cloudy
11:00 PM 71 °F - 64 °F 73% 30.05 in 6 mi ENE 8.9 mph - -   Scattered Clouds
11:50 PM 73.4 °F - 66.2 °F 78% 30.04 in 5.6 mi NE 10.4 mph - N/A   Partly Cloudy